CAPE
303 164 50 0 0 5 202 234 217 296 344 240 264 465 420 946 749 808 1097 1049 1013 1452 1532 889 656 567 827 569 912 619 496 64 212 0 0 312 701 841 1094 1234 1275 1211 1357 1409 1616 1755 1970 2155 2223 2589 2733 3170 3140 3204 3248 3281 3415 3470 3378 3408 3382 3302 3224 3163 2918 2706 2711 2874 2982 3235 3140 3176 3179 3174 3259 3186 3127 3104 3006 2977 2850 2328 2513 2416 2611 2371 2825 2880 2858 2667 2596 2447 2730 2651 2591 2373 2194
188 124 55 0 0 329 317 219 263 241 193 161 274 532 660 925 584 686 848 1130 1322 1487 1046 786 1047 1200 1184 1492 515 283 391 720 1224 606 452 599 779 1011 1276 1370 1322 1364 1457 1558 1716 1844 2001 2263 2578 2730 2859 2886 3220 3285 3477 3314 3288 3149 3243 3292 3226 3156 3134 3112 2919 2696 2901 3093 3148 3146 3140 3091 3039 3175 3235 3158 2969 2772 2859 2896 2785 2286 2792 2928 2915 2669 3077 3021 2890 2514 2283 2182 2372 2492 2534 2361 2366
78 83 6 5 8 165 386 237 286 165 14 81 152 378 852 757 273 720 1135 1161 1369 898 652 652 843 1311 941 1178 682 700 164 698 628 579 673 766 901 1170 1259 1354 1412 1495 1581 1709 1795 1916 2210 2580 2951 3168 3224 3333 3114 3165 3149 3182 3042 3021 3096 3057 2992 2913 2892 3007 2763 2916 3060 3109 3165 3177 3045 2816 2828 2862 2903 2811 2803 2747 2768 2896 2883 2788 2772 2906 2724 2718 2650 2682 2638 2552 2597 2540 2262 2702 2583 2359 2438
13 3 0 2 87 119 193 294 192 123 30 51 245 576 682 584 709 592 1144 1119 954 670 1008 891 759 580 1105 602 599 472 489 482 593 565 638 800 759 1186 1260 1442 1738 1594 1634 1780 1866 2124 2492 2720 3232 3273 3206 3118 3027 3096 3090 3006 2969 3019 2960 2934 2924 2957 2939 2995 3040 3078 3080 2964 3091 2998 2821 2835 2875 2918 2864 2838 2924 2715 2822 2886 2712 2393 2747 2921 2859 2632 2489 2686 2654 2648 2754 2650 2693 2318 2608 2724 2620
0 8 0 0 118 152 212 346 359 106 266 217 326 453 605 672 733 842 883 1272 1109 1040 1236 1122 709 617 768 643 466 447 541 580 528 693 586 856 1091 1147 1301 1546 1603 1628 1652 1842 2083 2343 2437 3004 3293 3167 3026 2966 3047 3038 3056 2924 2960 2908 2805 2847 2880 2896 3009 3068 3084 3028 2926 2929 3010 2846 2690 2762 2815 2690 2626 3027 3010 2703 2430 2604 2327 2591 2852 2694 2551 2461 2634 2791 2955 2923 2844 2732 2600 2208 2257 2440 2589
0 0 192 654 187 444 359 192 398 374 528 632 584 385 606 648 894 1153 842 737 734 1034 1067 1401 562 545 602 616 593 593 494 437 624 686 795 984 1090 1152 1465 1673 1625 1690 1773 1955 2137 2264 2587 3122 3040 2973 2789 2646 2734 2905 2845 2812 2787 2866 2794 2704 2840 2982 3037 3004 2945 2892 3004 2889 2840 2728 2606 2610 2529 2390 2693 2412 2601 2530 2446 2589 2674 2726 2731 2785 2649 2557 2670 2733 2736 2539 2668 2345 2500 2655 2479 2451 2220
104 77 379 554 524 312 208 287 253 296 302 709 793 600 543 541 1234 657 661 748 718 1097 538 1022 450 434 443 452 512 658 813 639 777 744 906 1012 1076 1336 1511 1581 1660 1730 1851 1989 2081 2377 2747 3003 2695 2486 2449 2447 2901 2851 2731 2758 2657 2701 2687 2816 2869 2842 2822 2683 2784 2895 2894 2738 2684 2555 2515 2502 2487 2525 2454 2453 2306 2556 2410 2480 2444 2548 2703 2626 2619 2547 2550 2608 2482 2474 2445 2588 2497 2497 2544 2566 2463
275 656 634 410 403 244 313 401 303 480 726 603 1043 1116 653 27 1444 599 296 422 349 926 602 961 718 557 483 570 606 704 729 914 814 877 946 1021 1174 1358 1420 1505 1620 1738 1877 1984 2170 2413 2964 2872 2859 2738 2871 2870 2803 2776 2802 2753 2698 2592 2563 2648 2736 2612 2646 2781 2726 2827 2743 2708 2626 2483 2422 2312 2480 2158 2515 2468 2252 2719 2838 2719 2586 2641 2782 2478 2501 2651 2482 2535 2414 2584 2542 2504 2426 2437 2456 2468 2557
270 461 1170 429 304 453 338 285 412 701 683 810 964 984 711 1011 1485 1198 1354 1278 740 744 462 551 430 458 595 756 813 863 794 815 876 959 944 1044 1172 1212 1278 1382 1561 1731 1889 2021 2162 2505 2627 2775 2788 2560 2660 2778 2738 2678 2655 2551 2444 2620 2711 2604 2801 2631 2639 2673 2646 2697 2735 2642 2498 2474 2475 2391 2416 2537 2501 2259 2253 2510 2572 2683 2620 2586 2542 2416 2438 2608 2649 2575 2629 2663 2565 2568 2561 2521 2299 2312 2510
466 567 497 372 365 299 157 44 220 110 767 837 879 849 1001 1406 1497 1165 1246 1131 997 579 663 678 447 573 633 587 768 931 856 854 834 845 925 970 1014 1038 1127 1300 1497 1713 1914 2057 2232 2476 2526 2875 2684 2598 2702 2609 2698 2665 2637 2578 2601 2649 2741 2780 2542 2616 2610 2606 2586 2717 2673 2578 2538 2580 2457 2365 2349 2442 2233 2185 2429 2704 2708 2651 2582 2616 2510 2383 2611 2763 2678 2547 2578 2541 2545 2584 2527 2438 2418 2198 2379
502 745 805 466 206 168 74 16 440 85 712 936 931 903 667 1136 1063 1124 1227 935 1162 861 318 538 492 510 529 614 723 868 806 770 771 807 802 824 840 929 1072 1209 1425 1700 1946 2138 2334 2422 2574 2658 2493 2590 2562 2624 2647 2672 2633 2507 2656 2639 2703 2697 2540 2560 2501 2555 2705 2611 2643 2593 2428 2554 2362 2302 2262 2494 2522 2336 2475 2743 2628 2509 2534 2585 2484 2497 2691 2738 2654 2618 2518 2602 2430 2432 2447 2367 2454 2454 2366
547 528 428 330 337 340 310 230 100 294 944 994 842 732 766 1605 1185 884 743 795 724 694 740 664 636 525 592 629 697 813 733 753 742 712 705 717 804 948 1101 1224 1403 1679 2035 2240 2318 2390 2346 2534 2434 2464 2514 2706 2720 2707 2675 2705 2734 2528 2547 2731 2573 2604 2330 2527 2628 2593 2645 2514 2507 2435 2437 2506 2609 2515 2562 2575 2523 2560 2611 2624 2634 2452 2478 2654 2650 2692 2677 2585 2582 2616 2555 2520 2471 2450 2326 2363 2492
510 465 418 331 389 388 430 292 65 664 955 1132 1126 1296 1570 1215 1363 790 1010 914 903 544 474 828 556 547 539 616 648 680 752 716 672 647 646 714 890 1050 1142 1215 1420 1792 2050 2170 2222 2306 2304 2314 2248 2550 2539 2197 2686 2624 2629 2371 2217 2520 2724 2667 2668 2489 2446 2590 2502 2676 2673 2426 2225 2409 2579 2532 2556 2461 2131 2455 2678 2694 2820 2615 2587 2521 2569 2626 2706 2695 2633 2561 2568 2636 2566 2534 2552 2450 2309 2422 2557
425 507 372 451 492 725 733 266 548 338 696 810 1039 1344 1619 1661 1907 1942 958 855 814 964 1096 624 644 647 632 586 696 680 709 647 613 599 632 780 888 976 1064 1241 1538 1758 1924 1972 2107 2254 2248 2141 2195 2316 2219 2148 2461 2476 2803 2248 2353 2888 2846 2662 2507 2489 2315 2474 2591 2461 2403 2349 2292 2107 2726 2588 2437 2392 2373 2520 2766 2792 2592 2612 2605 2638 2550 2643 2681 2669 2590 2624 2703 2721 2687 2524 2409 2491 2366 2359 2270
399 1108 479 542 573 739 740 100 632 711 744 991 793 1254 1348 1259 1517 1454 1041 1037 1110 1723 998 777 559 542 521 592 609 580 600 508 553 528 658 723 806 948 1151 1348 1509 1730 1812 1912 2073 2210 2189 2111 2134 2141 2171 2328 2257 2405 2174 2203 2566 2414 2692 2577 2616 2429 2344 2420 2521 2401 2257 2020 2393 2485 2598 2632 2465 2434 2363 2518 2432 2402 2521 2316 2318 2484 2586 2613 2636 2620 2743 2746 2754 2712 2715 2565 2544 2403 2256 2154 2101
598 663 525 506 349 405 441 460 502 785 979 1328 1094 1368 1572 1451 1400 1611 1236 2012 1124 976 1176 703 442 988 530 617 560 564 493 500 450 560 691 820 922 1055 1169 1314 1514 1694 1789 1903 1997 2090 2074 2097 2131 2095 2176 2252 2180 2189 2024 1941 2151 2498 2474 2637 2744 2211 2517 2433 2428 2410 2268 2294 2340 2619 2510 2635 2472 2477 2651 2228 2368 2108 2325 2202 2092 2506 2581 2536 2512 2532 2575 2632 2470 2538 2674 2601 2410 2287 2228 2260 2242
841 556 528 609 223 445 526 385 681 742 1202 1325 1124 1302 1053 1285 1386 1382 1613 1727 1016 1379 898 962 862 720 553 589 565 494 452 414 595 800 773 773 867 1010 1190 1304 1510 1656 1822 1867 1922 2026 2059 2138 2088 2171 2200 2194 2128 2058 1890 1866 1997 2277 2425 2168 2433 2210 2138 2041 2375 2459 2384 2541 2451 2471 2561 2418 2374 2478 2530 2418 2394 2611 2304 2394 2294 2493 2766 2672 2525 2663 2485 2439 2408 2484 2417 2300 2264 2462 2411 2353 2358
721 597 520 405 258 56 442 540 532 904 1024 1199 815 1274 1409 1147 1187 1443 1827 1334 1374 1252 1355 908 549 544 537 514 490 411 371 561 842 738 659 690 852 1021 1117 1275 1396 1499 1632 1803 1902 1937 2055 2146 2129 2158 2166 2119 2092 2025 1983 1856 1762 1870 1733 2068 2286 1989 2187 2272 2432 2470 2459 2292 2456 2344 2281 2724 2148 2140 2334 2186 2850 2598 2275 2337 2386 2621 2823 2809 2827 2742 2596 2467 2477 2318 2334 2315 2072 2390 2611 2370 2575
614 604 632 394 5 121 138 767 1157 1137 1056 1250 1318 1383 1453 1080 1603 1660 1178 1210 868 725 687 392 545 563 553 385 372 310 448 850 737 614 539 636 835 924 964 1144 1236 1362 1424 1714 1800 1904 2050 2084 2114 2108 2079 2054 2064 2014 1970 1906 1667 1780 2009 2239 2366 2314 2431 2685 2122 2418 2080 2206 2192 2236 2477 2152 1991 2270 2418 2633 2735 2355 2486 2423 2687 2665 2778 2882 2844 2766 2644 2723 2667 2537 2276 2266 2228 2525 1935 2081 2106
447 487 573 444 22 253 800 890 1130 1076 1249 1503 1262 1228 1399 1538 1658 1509 1400 1184 944 611 366 394 603 528 472 365 342 336 749 787 658 492 461 608 791 839 930 1044 1157 1286 1352 1548 1663 1908 1972 1984 2038 2018 1988 2005 2009 1940 1879 1758 1816 2018 2214 2224 2202 2045 2160 2172 1970 2031 2098 2156 2058 2062 2013 1999 1979 2092 2601 2476 2441 2219 2021 2157 2519 2505 2742 2828 2858 2905 2516 2350 2373 2331 2065 2638 2839 2289 1838 2144 2177
555 374 288 78 53 188 963 1148 1050 1195 1289 1115 1302 1516 1164 1439 1400 1629 1209 887 872 701 435 418 614 499 423 383 360 372 760 726 640 550 473 630 779 805 911 1002 1080 1224 1273 1456 1603 1850 1853 1922 1961 1975 1982 1991 1900 1820 1789 1784 1874 2115 2195 2203 2088 1948 2020 2011 1946 2072 2093 2028 1930 1881 1846 1990 1912 2049 2321 2354 2136 1934 1945 2163 2229 2364 2469 2702 3080 2590 2624 3174 2789 2894 3106 2597 2451 2378 2050 1892 1914
125 411 336 59 63 244 976 1033 1159 1219 1209 1050 1036 786 1012 1753 1273 1609 967 758 608 544 469 446 562 472 406 394 383 463 673 684 670 648 588 634 722 735 844 961 1030 1109 1190 1393 1520 1686 1750 1842 1901 1918 1930 1873 1820 1799 1777 1970 1946 2046 2070 2124 2069 1942 1953 1952 1971 1979 1846 1846 1783 1689 1936 1827 1832 2055 2156 2164 1911 1907 1957 2204 2272 2384 2525 2582 2544 2486 2604 2470 2471 2499 2547 2465 2590 2430 2151 1946 2270
0 0 34 81 58 328 1052 925 1148 1340 1250 910 780 961 1219 1366 1369 1478 1001 1165 1257 1613 863 368 601 491 415 434 370 501 601 626 663 647 615 552 556 656 816 923 1003 1010 1192 1318 1453 1563 1675 1775 1786 1809 1792 1794 1707 1783 1766 1979 1890 1978 1970 1978 1940 1856 1858 1876 1898 1776 1742 1754 1681 1871 1712 1743 1856 2041 2053 1901 1875 1881 2057 2160 2278 2340 2429 2313 2416 2265 2351 2371 2250 2364 2400 2385 2528 2459 2168 1960 1848
0 0 0 0 2 325 1064 1069 1205 1317 1023 844 962 1116 1460 1271 1041 1361 1133 1869 1466 1155 426 1259 605 537 505 483 415 461 570 582 616 590 580 485 492 673 800 870 904 931 1184 1255 1353 1467 1604 1674 1658 1678 1713 1682 1664 1739 1752 1758 1784 1908 1954 2272 1769 1609 1720 1777 1746 1636 1658 1637 1771 1822 2023 1724 1862 1932 1834 1766 1831 1868 2030 2142 2248 2304 2334 2376 2477 2266 2392 2294 2338 2302 2314 2246 2337 2437 2246 1697 1789
0 0 0 0 0 402 1121 1150 1248 1179 947 1062 852 980 1135 1100 1028 1156 959 1052 1322 840 650 360 470 514 404 405 408 393 498 549 573 613 574 494 564 733 789 782 814 972 1165 1194 1267 1404 1545 1596 1602 1619 1607 1576 1643 1718 1693 1680 1675 1802 1920 1961 1502 2116 1574 1637 1617 1591 1562 1649 2184 1879 2259 1730 1790 1778 1704 1745 1768 1863 1952 2060 2114 2164 2253 2357 2369 2169 2207 2308 2186 2250 2215 2150 2153 2128 1816 1638 1414
0 0 0 0 1 750 978 1096 1075 1111 1077 1013 698 1015 1181 1551 1081 942 1165 834 884 849 481 332 341 301 370 368 389 347 428 529 570 622 577 538 645 720 746 712 823 1038 1145 1149 1233 1360 1475 1550 1600 1579 1517 1516 1610 1663 1632 1621 1610 1723 1877 1898 1462 2379 1542 1571 1546 1773 1646 1697 2245 1799 2062 1667 1698 1730 1734 1748 1789 1833 1996 2168 2051 2054 2120 2231 2232 1998 1757 2125 2116 2053 2109 2088 2054 1834 1688 1572 1765
0 0 0 0 89 996 798 950 982 1104 1090 846 646 933 1149 1116 774 872 1108 973 919 671 419 384 292 323 400 390 323 301 337 497 550 595 510 537 638 656 659 709 876 1059 1155 1174 1237 1342 1435 1519 1589 1547 1475 1519 1597 1564 1615 1572 1568 1674 1834 1934 1653 2187 1621 1646 1735 1862 1726 1770 2186 1824 1910 1810 1640 1719 1799 1856 1814 1845 1990 2220 2206 2091 2075 2188 2075 1744 1978 1934 2105 2202 2324 2237 1902 1710 1772 1516 1986
0 0 0 0 286 829 790 811 1098 1052 872 671 608 735 950 1007 925 904 954 984 993 716 465 445 327 287 321 309 299 60 275 402 456 486 444 489 593 590 619 733 899 1061 1200 1180 1257 1353 1446 1502 1562 1510 1428 1463 1524 1506 1586 1520 1528 1609 1805 1912 1757 2232 1737 1674 1707 1857 1828 1818 2106 1911 1848 1748 2322 1723 1880 1921 1849 1869 1989 2177 2215 2188 2168 2228 1963 1890 2093 2630 2454 2469 2369 2109 1848 1893 2360 2026 1875
0 0 0 106 512 650 739 823 1277 972 862 603 480 602 710 769 778 942 935 877 788 547 585 582 424 338 304 242 124 59 139 314 351 378 395 417 506 539 644 758 914 1060 1207 1188 1264 1395 1463 1487 1497 1448 1411 1438 1413 1406 1480 1446 1492 1564 1741 1854 1784 2163 1918 1749 1706 1780 1773 1815 2011 1948 1837 1740 2349 1808 1941 1961 2454 1888 1972 2020 2134 2098 1959 1932 2224 2180 2271 2528 3022 2616 2325 2276 1882 1648 1609 1593 2484
0 0 0 440 512 512 702 944 1242 1027 852 581 448 328 328 591 620 887 931 713 625 695 696 596 452 390 310 152 37 51 68 81 260 296 338 272 416 485 628 781 906 1049 1207 1208 1246 1418 1482 1463 1408 1382 1413 1405 1288 1272 1410 1417 1421 1508 1676 1765 1734 1977 2002 1832 1695 1701 1589 1778 1917 1914 1836 2005 2179 1868 1983 1996 1906 1863 1854 1626 1827 1907 2057 2105 2215 2042 2337 2468 2729 2462 2088 1605 2202 2063 1345 1806 1715
0 0 0 610 498 574 761 1046 1067 916 775 730 414 189 32 467 533 908 990 625 671 734 692 570 442 392 357 273 177 40 48 76 208 222 297 173 298 470 619 776 873 1006 1185 1224 1246 1395 1551 1418 1288 1338 1586 1424 1333 1130 1298 1326 1383 1418 1594 1673 1636 1785 1852 1806 1701 1603 1472 1659 1808 1730 1838 2273 2233 1894 1915 1970 1908 1684 1449 1121 1407 1732 2026 2049 2054 1924 2513 2506 2564 2588 2415 1738 1802 2290 2040 1964 2563
0 0 0 146 346 22 834 1019 829 672 682 788 440 214 167 402 698 900 1039 680 685 739 687 581 441 363 349 319 168 12 32 41 20 24 40 108 238 418 615 759 847 969 1149 1234 1222 1385 1506 1421 1279 1277 1534 1492 1225 1070 1215 1245 1302 1352 1515 1646 1442 1523 1542 1622 1678 1608 1377 1370 1644 1591 1632 2140 2288 1860 1816 1823 1804 1493 1306 1466 1756 1911 2036 1773 1569 2285 2457 2293 2367 2441 2782 2291 2245 2012 2753 2095 2257
0 0 0 0 0 0 887 894 835 542 640 848 565 139 113 310 794 865 1057 821 740 726 676 606 484 353 314 309 196 2 12 22 9 12 18 46 176 406 548 720 819 941 1112 1215 1230 1376 1490 1429 1488 1278 1447 1526 1357 1129 1162 1162 1229 1316 1428 1456 1332 1319 1283 1362 1541 1520 1220 847 1274 1439 1556 1944 2074 1985 1840 1772 1554 1631 1593 1884 2146 2188 1944 1715 2185 2848 2587 2409 2376 2309 2388 3022 2758 2403 2326 2139 2021
0 0 0 0 0 0 702 914 802 653 627 777 732 475 212 325 733 886 976 940 791 719 672 637 508 368 326 304 263 151 5 15 11 7 19 26 115 350 469 753 781 893 1079 1210 1261 1365 1446 1418 1315 1272 1366 1479 1523 1361 1198 1132 1137 1280 1369 1380 1405 1280 1147 1132 1246 1315 1044 962 1195 1280 1417 1849 1886 1916 2164 1794 1599 1672 1788 2105 2271 2157 2410 2258 2716 2892 2634 2486 2482 2166 1963 2611 2880 2732 2041 1538 1557
0 0 0 0 0 0 0 521 928 672 619 732 746 643 511 406 734 872 908 854 778 727 693 658 581 426 368 338 310 275 12 16 10 2 13 18 69 282 412 609 718 830 1002 1166 1285 1363 1365 1332 1253 1199 1253 1369 1513 1512 1188 1000 972 1101 1242 1290 1433 1448 1271 1196 1060 1138 1142 1227 1194 1179 1358 1664 1948 1750 2251 2161 1642 2207 2150 2196 2260 2344 2555 2590 2823 2744 2543 2458 2520 2387 2221 2350 3270 2995 2142 1154 1373
0 0 0 0 0 0 0 0 306 728 690 626 715 662 572 414 700 902 856 774 750 766 706 688 649 496 429 417 369 311 289 35 14 1 5 16 46 227 346 519 613 720 896 1086 1268 1355 1273 1145 1067 1048 1151 1292 1449 1417 1014 914 858 799 870 1005 1196 1365 1358 1284 1090 1066 1244 1405 1314 1244 1442 1545 1624 1664 2265 2447 1893 2208 2148 2230 2297 2452 2664 2688 2740 2693 2526 2462 2466 2543 2522 2679 3001 2843 3223 2962 2620
0 0 0 0 0 0 0 0 2 663 672 545 541 614 534 399 506 852 853 813 831 797 773 763 693 610 528 516 475 385 335 296 66 8 7 9 19 159 321 418 503 598 745 980 1198 1268 1117 903 854 958 1110 1234 1315 1180 910 906 703 585 604 730 823 912 1054 1089 994 1087 1411 1547 1515 1456 1576 1534 1598 1739 2278 2392 1966 2745 2155 2259 2316 2490 2586 2467 2516 2572 2532 2309 2366 2465 2578 3742 3143 2455 2606 2743 1933
0 0 0 0 0 0 0 0 0 435 574 566 491 476 450 367 464 754 854 834 852 864 845 800 755 711 618 574 565 495 409 340 300 278 318 259 7 97 278 344 437 401 524 837 1067 1123 882 776 800 953 1086 1142 1121 999 883 934 352 411 520 719 818 826 874 1047 1000 1236 1487 1649 1713 1749 1730 1708 1805 1810 2433 2453 1928 2319 2121 2196 2265 2360 2628 2428 2290 2236 2212 2419 2709 2642 2592 2551 2382 2133 1950 1946 1812
0 0 0 0 0 0 0 0 0 16 460 77 93 388 351 245 488 778 903 870 873 851 835 795 752 720 652 606 628 589 483 425 379 359 364 381 146 59 218 288 352 364 408 714 895 880 681 743 802 945 1048 1082 1062 1013 974 770 423 374 594 713 822 888 916 1000 1009 1260 1625 1710 1908 1982 1948 1970 2056 2166 2611 2632 2151 2172 2157 2243 2214 2266 2663 2613 2318 1941 2210 2466 2907 2932 2736 2125 2172 2118 2686 2440 1799
0 0 0 0 0 0 0 0 0 0 160 32 3 107 94 316 532 766 940 929 911 886 848 814 767 725 676 629 626 624 564 483 436 414 427 436 398 40 151 213 296 317 372 592 688 491 499 750 817 953 1030 1033 1030 1025 871 540 410 511 601 642 729 886 982 1024 1076 1294 1608 1786 2029 2126 2119 2183 2323 2472 2811 2706 2291 2089 2247 2337 2291 2317 2544 2467 2158 1970 2169 2216 2907 2910 2883 2654 2039 1950 1794 2099 3389
0 0 0 0 0 0 0 0 0 0 0 0 0 22 23 369 621 663 853 906 867 909 893 800 769 786 730 667 651 652 625 547 500 453 469 479 413 310 99 154 233 266 298 406 327 317 518 733 844 984 1052 1031 1015 965 814 650 659 237 64 17 142 231 816 1060 1149 1318 1596 1871 2047 2190 2208 2380 2533 2638 2930 2764 2355 2006 2122 2349 2427 2543 2488 2433 2224 2109 2197 2036 2668 2875 2895 2691 2707 1888 1766 2046 2076
0 0 0 0 0 0 0 0 0 0 0 0 0 10 28 237 638 629 758 925 871 864 898 868 782 694 736 725 719 679 663 597 554 518 526 510 431 346 42 85 169 209 241 343 257 306 484 671 784 926 1018 1038 1041 936 827 679 624 195 25 14 40 146 620 816 1150 1310 1529 1803 2088 2172 2239 2464 2680 2743 2962 2981 2459 2068 1937 2267 2502 2704 2659 2626 2494 2291 2427 2364 2746 2920 2982 2763 2678 2385 2014 1853 1547
0 0 0 0 0 0 0 0 0 0 0 0 0 0 16 44 574 701 728 816 879 860 813 842 805 747 689 705 728 754 724 672 594 579 553 546 447 378 328 40 102 157 176 255 186 262 408 594 717 811 902 975 1000 915 826 694 426 182 50 23 12 480 656 662 882 1154 1468 1729 1948 2076 2235 2438 2750 2832 2942 3107 2996 2558 2269 2138 2417 2672 2748 2763 3033 2590 2827 2776 2712 2927 2964 2887 2758 2393 2249 1980 1767
0 0 0 0 0 0 0 0 0 0 0 0 0 1 28 65 390 659 764 746 816 845 827 780 750 740 711 713 726 733 724 693 664 621 603 563 500 455 380 25 38 105 112 149 120 201 341 446 461 731 774 856 938 901 796 722 564 220 67 10 27 4 500 594 865 1116 1418 1633 1833 1932 2092 2296 2677 2849 2850 3027 3213 3012 2672 2447 2442 2530 2520 2556 3019 2890 2771 2846 2678 2646 2747 2696 2648 2484 2393 2282 2002
0 0 0 0 0 0 0 0 0 0 0 1 92 0 24 0 103 139 722 813 787 829 858 844 732 655 682 705 720 726 692 675 670 654 653 574 544 515 428 261 20 23 34 68 67 155 276 366 384 662 658 711 832 855 816 749 521 242 124 23 18 34 0 19 907 1231 1419 1586 1702 1803 1974 2126 2438 2745 2751 2769 3053 3184 2931 2628 2602 2575 2559 2221 3456 3128 2940 2885 2672 2521 2583 2564 2461 2458 2622 2603 2441
0 0 0 0 0 0 0 0 0 0 0 0 87 0 0 0 0 39 595 762 850 843 855 870 838 774 657 660 661 664 647 654 645 630 605 590 569 552 496 407 171 10 262 51 41 96 212 280 312 460 550 600 725 787 774 762 447 387 108 29 6 12 75 13 340 1274 1447 1534 1572 1642 1852 1995 2117 2423 2602 2585 2702 3036 3127 2922 2707 2696 2755 2597 3185 3225 3090 3018 2825 2632 2552 2437 2377 2390 2384 2971 2719
0 0 0 0 0 0 0 0 0 0 0 0 0 0 0 0 0 144 549 750 792 815 827 878 852 778 730 671 671 698 693 666 680 654 639 625 596 586 513 458 412 209 0 0 9 46 152 214 225 252 292 470 636 719 750 748 710 316 120 52 2 2 0 0 0 1034 1412 1475 1471 1502 1686 1899 1970 2074 2307 2458 2570 2778 2998 3021 2780 2598 2641 2790 3061 3108 3022 2885 2762 2624 2534 2345 2435 2481 2333 2520 3377
0 0 0 0 0 0 0 0 0 0 0 0 0 0 0 0 0 124 548 627 698 720 772 885 895 844 747 694 695 728 734 730 704 682 620 641 615 580 542 492 448 427 114 0 2 434 132 173 185 227 260 384 578 637 680 702 511 335 158 66 7 0 0 0 0 93 1179 1353 1374 1347 1484 1732 1929 1990 2044 2213 2425 2591 2660 2634 2580 2451 2419 2480 2727 2895 2936 2794 2727 2746 2750 2392 2360 2501 2418 2323 2244
0 0 0 0 0 0 0 0 0 0 0 0 0 0 0 0 0 0 41 547 625 685 697 732 820 869 857 788 644 712 701 717 696 628 656 605 601 593 570 524 499 450 398 396 442 467 300 140 151 212 260 359 448 587 602 525 269 316 212 86 14 0 0 0 0 1 312 1099 1199 1227 1247 1451 1759 1903 1964 2000 2161 2292 2330 2369 2392 2308 2243 2351 2493 2739 2844 2838 2802 2840 2789 2545 2278 2422 2441 2477 2642
0 0 0 0 0 0 0 0 0 0 0 0 0 0 0 0 0 0 1 224 523 604 661 660 689 767 850 881 823 739 718 710 711 706 700 653 586 616 587 536 470 449 414 431 456 471 464 139 123 204 269 348 455 562 607 564 292 280 234 116 25 7 0 0 0 0 1 407 997 1102 1108 1151 1412 1718 1777 1883 1915 2049 2133 2210 2260 2207 2108 2178 2342 2539 2663 2638 2617 2664 2650 2401 2271 2436 2564 2678 2767
0 0 0 0 0 0 0 0 0 0 0 0 0 0 0 0 0 0 0 6 229 492 582 652 686 669 733 862 915 856 802 784 768 749 718 678 615 598 607 544 488 460 463 468 470 471 464 125 110 255 282 366 450 523 601 590 375 269 234 121 48 0 0 0 0 0 0 5 360 899 947 952 1082 1408 1594 1690 1782 1897 2032 2086 2106 2100 2047 2033 2127 2246 2313 2371 2406 2423 2323 2097 2087 2412 2636 2857 2921
0 0 0 0 0 0 0 0 0 0 0 0 0 0 0 0 0 0 0 0 1 235 477 600 663 652 636 730 912 912 847 802 775 748 720 669 660 658 623 562 521 496 488 490 484 380 63 111 96 197 286 391 452 590 547 557 442 304 231 129 46 29 52 0 0 0 0 0 0 163 795 839 893 1072 1342 1467 1579 1717 1908 2013 1985 2011 1992 1996 2019 2098 2186 2222 2228 2285 2246 2014 1967 2277 2568 2764 2963
0 0 0 0 0 0 0 0 0 0 0 0 0 0 0 0 0 0 87 59 72 57 177 342 499 555 554 686 848 914 925 889 850 796 744 704 671 722 713 616 544 518 502 512 520 524 517 508 169 146 253 409 480 585 546 535 492 350 239 145 42 28 12 0 0 0 0 0 0 0 226 600 811 827 970 1151 1218 1324 1608 1908 1916 1950 1979 1994 2033 2085 2163 2206 2202 2204 2229 2091 2009 2016 2274 2440 2654
0 0 0 0 0 0 0 0 0 0 0 0 0 0 0 0 0 11 148 222 260 196 156 7 73 319 431 666 811 887 932 945 920 869 796 738 748 761 755 732 588 574 566 541 542 543 541 238 496 505 493 357 497 544 523 507 505 417 283 156 41 12 2 2 0 0 0 0 0 0 2 223 428 753 806 959 1029 1158 1437 1940 1763 1859 1912 1948 2016 2079 2141 2233 2241 2212 2249 2166 2045 2065 2138 2248 2347
0 0 0 0 0 0 0 0 0 0 0 0 0 0 0 0 0 0 99 194 224 180 109 52 44 0 54 432 768 871 912 922 959 968 937 870 825 816 785 757 688 603 584 573 543 553 541 527 520 521 509 255 451 564 511 479 469 477 374 228 57 6 0 1 0 0 0 0 0 0 0 16 227 398 734 857 980 1033 1294 1528 1674 1783 1851 1874 1930 2043 2110 2205 2280 2305 2281 2140 2085 2235 2271 2305 2292
0 0 0 0 0 0 0 0 0 0 0 0 0 0 0 0 0 0 143 234 229 254 150 43 34 22 0 158 638 861 933 945 945 970 988 965 918 872 806 782 750 662 609 578 552 545 555 556 541 510 500 485 411 531 615 462 397 442 425 322 116 7 0 0 3 0 0 0 0 0 0 0 6 274 456 760 875 936 1092 1370 1605 1702 1769 1836 1881 1992 2133 2204 2291 2364 2329 2116 2076 2180 2298 2416 2445
0 0 0 0 0 0 0 0 0 0 0 0 0 0 0 0 0 0 54 145 102 116 167 2 4 9 12 4 400 783 929 975 995 1001 1003 982 955 906 859 817 790 700 641 620 581 569 568 558 264 432 417 229 281 436 556 496 339 307 373 332 237 35 0 0 0 0 0 0 0 0 0 0 0 48 277 459 795 888 943 1139 1395 1608 1694 1772 1843 1914 2057 2204 2275 2333 2337 2176 2111 2172 2194 2197 2235
0 0 0 0 0 0 0 0 0 0 0 0 0 0 0 0 0 0 0 93 74 29 166 0 0 0 4 32 185 712 906 974 994 1039 1054 1022 984 953 908 878 808 749 699 652 608 586 575 568 564 520 265 501 319 367 487 526 411 256 436 248 256 138 7 0 0 0 2 0 0 0 0 0 0 0 58 299 485 828 907 956 1096 1326 1587 1708 1764 1819 1897 2093 2202 2220 2252 2217 2152 2195 2257 2286 2277
Wind_Speed
5 4 nan nan nan nan 6 4 5 6 9 11 5 5 9 10 9 9 11 13 11 11 9 5 5 4 7 8 3 0 6 nan 7 nan nan 6 6 11 11 11 9 8 7 7 7 7 8 10 15 13 12 9 8 7 6 4 3 4 4 4 3 2 2 2 2 2 2 2 0 0 0 1 2 3 3 4 4 5 6 6 7 7 6 5 5 4 4 4 4 3 6 7 8 9 9 9 10
5 5 nan nan nan 5 5 6 5 6 9 8 5 7 11 9 8 7 9 14 14 8 9 7 5 5 6 5 3 4 4 5 8 5 3 3 5 6 11 11 11 11 8 7 6 7 8 9 13 11 11 11 9 7 5 4 3 3 2 2 2 2 2 1 2 2 3 2 2 1 1 2 2 2 3 4 5 6 6 6 7 6 6 5 4 4 4 4 5 4 5 6 8 9 10 10 10
nan nan nan nan nan 6 6 5 5 7 nan nan 6 6 11 10 10 12 11 14 10 6 7 7 5 8 6 7 4 4 3 3 2 3 2 7 9 9 10 11 10 10 8 6 7 7 7 7 8 8 9 9 9 8 6 5 4 2 1 1 1 2 1 1 1 2 2 2 2 1 1 2 2 3 4 5 6 6 6 7 6 5 6 5 4 5 5 5 4 5 5 5 6 9 10 10 11
nan nan nan nan nan 5 5 6 6 6 nan nan 8 8 12 11 10 10 13 13 7 5 8 8 5 9 7 4 3 4 5 2 7 7 6 10 8 11 10 10 9 7 5 5 5 5 5 6 5 7 8 9 9 8 6 5 4 3 2 1 0 0 0 1 0 0 1 1 1 1 2 1 2 2 3 5 6 6 7 7 6 6 6 5 5 4 5 4 4 4 4 5 6 8 9 9 10
nan nan nan nan 6 4 3 4 6 9 8 3 8 9 14 11 10 9 11 12 11 9 9 6 5 9 6 2 4 3 5 3 6 7 5 3 7 11 10 9 8 6 5 4 3 4 4 6 5 7 9 10 9 8 6 5 4 3 2 1 2 2 2 2 2 1 1 0 1 1 1 1 1 1 3 4 5 6 5 6 6 6 5 5 4 4 4 4 4 3 3 4 6 7 8 8 8
nan nan 2 4 4 2 2 2 6 10 6 5 8 8 12 15 10 8 10 11 10 10 11 8 3 3 6 5 4 3 9 7 6 4 6 5 10 12 10 8 7 6 4 3 3 3 4 6 8 9 9 9 8 7 6 5 4 3 3 3 3 3 3 3 3 2 1 1 0 1 1 0 0 1 2 3 5 7 6 6 6 5 4 4 4 4 4 4 4 3 3 4 5 6 6 6 7
9 nan 4 3 1 2 2 3 6 7 2 5 6 8 10 16 13 7 8 8 13 9 11 10 4 5 4 4 3 1 4 7 4 6 1 8 9 10 10 7 6 5 4 2 3 3 4 7 9 9 9 8 6 6 6 5 5 5 4 4 4 3 2 3 3 2 1 1 1 1 1 1 0 1 1 2 4 5 4 4 4 3 3 2 3 2 3 3 3 3 4 4 5 5 5 5 5
6 6 3 2 2 3 4 4 6 5 1 4 6 7 8 nan 14 7 8 9 8 8 11 7 4 4 5 7 3 3 2 2 4 3 7 7 8 8 9 7 6 4 3 2 3 4 5 8 8 8 7 7 6 5 5 6 6 5 5 4 3 2 3 3 3 2 2 1 1 2 1 1 1 2 1 2 3 3 3 3 3 2 2 2 2 2 3 3 3 3 3 4 5 5 4 4 4
8 4 2 1 1 4 3 4 3 4 3 5 7 10 9 13 13 7 7 9 7 8 3 7 2 4 4 2 1 1 1 7 6 7 8 8 9 8 6 7 7 5 3 1 2 4 4 6 7 8 7 7 6 5 5 6 6 6 5 4 3 3 4 4 3 3 2 2 2 2 2 2 2 2 3 3 4 3 3 3 3 2 2 2 2 3 3 3 3 2 3 4 4 4 4 3 3
5 3 1 3 2 2 3 nan 2 2 8 9 7 10 13 15 11 11 7 7 8 4 5 11 8 2 3 2 2 1 4 10 9 7 7 9 9 7 6 7 7 8 5 1 2 4 6 6 6 7 7 6 6 6 6 6 6 6 5 3 3 4 4 4 4 3 3 2 3 3 3 3 3 4 3 4 4 4 4 5 4 3 3 3 3 3 2 2 2 2 2 2 3 3 4 4 4
5 3 2 3 4 4 nan nan 1 nan 7 6 10 9 11 14 9 10 11 8 8 5 5 3 5 7 4 3 5 2 9 11 11 10 9 9 8 6 5 4 5 6 5 3 2 5 6 5 6 6 6 7 7 7 7 7 6 5 4 3 4 4 5 4 4 3 4 4 4 4 4 4 4 4 4 5 5 5 5 5 4 4 4 4 4 4 3 2 2 3 4 3 3 3 3 5 4
4 2 2 4 4 7 8 5 nan 2 5 5 7 6 11 10 8 7 3 3 8 2 4 5 5 7 5 4 5 7 10 10 10 10 9 8 6 5 3 2 3 3 4 3 1 6 6 7 5 5 7 7 7 7 7 6 5 5 5 4 5 5 6 5 5 5 5 5 5 5 5 5 5 6 6 6 6 5 5 5 5 5 5 5 5 4 4 4 5 5 4 3 3 3 3 4 5
4 4 1 2 4 7 8 6 nan 3 7 9 4 7 11 12 10 4 4 5 4 4 4 7 10 1 2 4 4 6 10 10 10 11 9 6 5 3 1 2 2 3 3 2 1 5 6 7 6 6 5 8 7 6 6 4 5 4 5 7 6 7 7 5 6 6 6 6 7 7 7 7 7 7 7 8 7 6 6 6 6 6 6 6 5 5 5 6 6 5 4 4 4 5 3 4 5
5 1 1 0 2 5 6 7 7 5 7 6 6 6 12 10 11 10 5 5 4 4 7 5 4 8 6 1 5 7 8 11 12 11 6 5 3 2 2 1 3 2 2 1 2 5 6 7 6 5 5 4 4 4 5 5 3 4 5 6 8 7 7 6 7 8 8 9 8 9 9 9 8 8 8 8 8 7 7 7 8 7 7 6 5 5 5 6 5 4 4 5 4 6 5 5 5
3 4 3 2 2 2 6 5 8 4 5 3 4 5 7 11 11 13 11 7 11 9 10 6 4 9 7 10 8 9 9 13 11 8 7 5 3 1 1 1 2 2 1 1 3 4 6 7 6 6 6 6 5 7 7 2 3 4 5 6 6 7 6 8 9 10 10 10 10 11 11 10 9 9 9 9 9 7 7 8 8 8 7 6 6 6 6 6 5 5 6 6 6 7 7 6 6
5 6 4 3 1 1 3 4 6 2 2 3 3 3 9 11 14 14 15 14 10 12 10 3 10 5 8 10 7 9 12 11 9 8 6 5 2 0 0 1 0 1 0 1 3 5 5 7 8 7 6 5 6 7 6 3 4 6 5 7 7 8 7 9 11 11 11 11 12 12 11 11 11 11 11 10 8 9 8 10 10 9 8 8 7 7 7 7 7 7 7 7 6 6 7 6 6
9 8 6 6 3 1 3 3 6 5 3 3 3 3 5 7 13 17 15 12 9 10 9 7 7 1 8 5 11 12 12 9 8 8 6 3 2 1 2 2 1 1 2 3 4 5 4 6 7 6 5 5 6 7 6 4 4 5 5 7 7 9 9 11 12 11 11 12 13 12 11 12 13 13 14 13 11 13 10 10 10 9 9 9 8 8 8 7 8 8 8 8 7 7 8 7 8
10 5 7 5 2 nan 2 3 4 4 7 8 8 7 7 6 7 11 11 13 11 9 8 8 3 6 5 10 13 12 10 9 9 9 6 4 3 2 2 3 3 3 3 3 4 4 4 6 6 6 5 5 6 7 8 7 5 6 6 6 8 8 9 9 9 10 11 13 12 10 12 14 14 15 16 13 16 13 12 11 10 9 9 9 9 8 8 8 9 9 9 9 8 7 9 14 14
7 8 7 4 nan 1 3 2 8 8 4 10 8 5 6 2 2 8 5 8 7 6 9 6 5 7 11 11 16 14 11 10 10 9 9 8 6 6 4 3 4 3 3 3 5 5 5 6 7 6 6 5 6 8 8 6 6 8 7 7 8 7 7 8 10 10 12 12 11 11 12 14 15 16 16 14 13 14 14 11 10 9 9 9 8 9 9 10 10 9 9 10 10 8 12 14 15
6 8 6 5 nan 4 3 7 8 2 10 8 6 5 5 2 7 8 7 5 5 3 3 5 4 10 11 12 15 14 11 11 9 9 9 8 7 7 5 5 5 5 4 3 3 5 5 6 7 7 5 5 6 7 7 7 8 7 7 7 7 8 8 10 10 12 12 12 12 11 11 13 14 16 14 12 10 13 13 10 10 9 9 9 8 10 9 11 10 9 9 9 12 13 13 13 14
10 6 7 nan nan 7 5 3 5 8 9 9 6 5 6 1 9 10 4 5 8 6 7 7 10 12 12 13 15 12 12 12 9 8 7 7 5 4 4 5 5 4 3 1 4 5 5 6 7 7 6 5 6 7 6 7 8 7 7 7 7 8 9 10 11 12 12 12 13 12 12 12 13 14 13 11 11 11 11 11 13 12 12 12 10 13 14 13 12 12 13 12 14 14 14 14 13
13 4 6 nan nan 11 7 5 8 7 3 5 7 10 7 5 10 12 2 3 6 6 8 5 8 13 15 15 14 11 13 12 10 8 8 9 9 5 3 4 4 4 2 2 4 5 6 7 7 6 6 6 6 7 6 7 8 8 8 8 8 9 9 11 13 13 13 13 13 13 12 11 11 11 10 10 10 10 10 10 11 12 12 12 13 13 13 13 13 13 13 12 14 15 14 14 15
nan nan nan nan nan 12 9 7 5 6 4 5 8 5 9 4 2 9 6 7 6 7 5 3 8 12 11 11 12 12 13 12 11 10 9 9 8 6 5 4 4 5 4 4 4 5 5 7 7 6 6 6 6 8 8 9 9 9 9 9 8 9 10 12 12 14 14 14 13 13 11 10 9 9 9 10 10 10 9 10 11 12 12 13 14 14 15 13 13 13 13 13 14 14 15 15 15
nan nan nan nan nan 6 8 7 6 1 5 5 2 6 3 7 5 9 7 11 7 5 4 3 10 11 12 12 11 11 12 12 10 9 9 10 9 8 6 4 4 4 4 3 5 5 5 6 7 5 5 6 7 8 9 10 11 10 10 10 10 10 11 12 14 14 14 13 13 12 11 9 8 8 9 9 10 9 9 10 10 11 13 14 15 15 14 13 13 14 15 14 14 14 15 15 15
nan nan nan nan nan 11 10 12 8 4 3 3 5 6 6 9 6 6 8 2 3 4 5 3 11 11 11 12 12 10 8 9 9 8 6 4 5 4 3 3 4 3 4 4 5 5 5 6 6 5 5 6 8 9 10 11 11 11 11 12 12 12 12 13 13 13 13 13 12 11 10 9 9 9 9 10 9 9 10 11 10 11 13 14 15 15 14 14 16 16 17 16 15 15 15 15 16
nan nan nan nan nan 12 13 16 12 7 6 2 3 1 2 4 1 6 4 3 1 4 2 5 13 11 11 13 11 10 11 11 9 9 9 5 5 5 5 4 4 4 4 4 4 6 5 5 5 5 5 6 8 9 11 11 12 12 12 13 13 13 13 12 12 12 12 11 11 11 11 10 10 10 10 10 9 10 11 12 12 12 13 14 14 16 15 14 17 17 17 16 16 15 15 16 15
nan nan nan nan nan 16 16 18 13 10 9 2 3 0 1 4 3 6 5 3 3 4 3 8 12 12 12 12 10 10 12 11 11 8 7 6 6 6 5 3 4 4 2 4 5 6 5 4 5 5 6 7 9 10 11 12 12 13 13 13 14 13 13 12 12 11 11 11 11 10 11 11 10 10 11 11 11 12 13 13 13 13 15 15 15 16 15 16 17 16 16 15 15 15 16 17 15
nan nan nan nan 8 13 16 17 14 12 11 5 7 6 5 5 10 8 6 5 7 5 8 8 8 12 11 12 11 nan 11 10 9 9 11 11 8 5 5 4 4 4 4 4 6 6 5 5 5 6 6 8 9 10 11 11 13 13 13 13 14 13 12 11 11 10 11 11 10 10 11 12 11 11 12 12 12 13 14 15 15 14 16 16 16 17 16 17 16 16 15 14 14 15 16 15 16
nan nan nan 12 11 10 8 13 10 9 14 8 12 14 8 3 7 7 4 6 8 9 10 9 9 12 11 11 10 nan 11 12 12 11 12 10 8 5 6 4 4 3 3 3 5 6 5 4 5 6 7 9 10 11 11 12 12 12 12 13 13 12 12 10 10 11 10 10 10 9 11 12 11 12 13 13 14 14 15 15 16 17 17 17 17 17 16 16 16 16 15 14 14 15 15 16 16
nan nan nan 12 10 8 3 12 11 9 11 7 9 9 7 6 6 4 5 8 9 9 12 9 9 11 11 11 nan nan nan nan 14 13 10 9 8 6 5 3 3 2 1 3 6 7 6 6 6 7 8 9 11 12 12 12 12 12 13 13 13 11 11 10 11 10 9 9 10 10 11 12 12 12 13 14 14 15 16 16 17 18 18 18 18 17 16 15 15 16 15 15 15 14 15 16 16
nan nan nan 9 11 9 6 4 8 8 12 5 7 11 nan 2 3 2 5 9 12 11 13 10 10 10 10 10 8 nan nan nan 15 14 13 10 8 6 5 1 3 2 2 2 4 6 6 6 6 8 9 10 12 12 12 13 12 12 12 12 12 11 10 10 9 9 9 9 9 10 11 12 12 13 14 14 15 16 17 17 18 20 19 18 18 18 16 15 15 16 16 15 16 15 15 16 16
nan nan nan 13 8 nan 4 3 5 7 11 1 9 11 7 3 2 4 4 6 11 10 12 10 11 10 9 9 9 nan nan nan nan nan nan 12 10 8 7 3 2 2 3 2 4 6 6 6 6 8 9 11 12 12 13 12 11 11 11 11 10 9 9 9 9 9 9 9 10 11 12 12 11 13 13 14 15 17 18 18 20 19 19 18 19 18 17 16 16 16 16 15 17 18 17 18 16
nan nan nan nan nan nan 12 6 3 5 7 2 2 7 13 12 6 7 5 7 11 10 10 11 12 12 11 10 9 nan nan nan nan nan nan nan 11 9 8 5 2 3 2 1 4 6 7 6 7 8 9 10 11 11 12 12 10 10 10 9 8 8 8 9 9 9 9 9 10 10 11 12 11 12 13 14 15 17 18 19 20 19 19 18 19 18 17 16 15 16 16 16 15 16 16 18 18
nan nan nan nan nan nan 15 15 7 8 5 5 9 8 8 12 8 7 6 7 10 11 10 12 12 11 11 11 10 9 nan nan nan nan nan nan 12 12 9 6 4 2 2 2 3 5 5 7 8 10 10 10 11 10 10 10 10 8 8 7 7 8 9 8 8 8 9 9 9 10 10 11 11 12 12 14 15 16 17 18 19 19 18 18 18 17 18 16 16 16 16 16 15 15 16 17 19
nan nan nan nan nan nan nan 19 12 10 10 8 7 9 9 12 7 4 5 6 9 12 13 14 13 13 12 11 11 10 nan nan nan nan nan nan nan 13 9 8 5 1 1 2 3 7 8 8 10 12 11 10 10 10 10 9 8 8 7 6 6 8 9 8 8 8 8 8 9 9 9 10 11 12 12 13 14 15 15 17 17 18 18 18 17 18 18 17 17 16 16 17 15 15 16 18 18
nan nan nan nan nan nan nan nan 18 7 9 12 9 11 10 7 2 1 2 5 9 11 11 9 10 11 12 10 11 10 9 nan nan nan nan nan nan 14 10 7 5 2 0 1 2 6 8 8 11 13 13 10 10 10 9 8 7 6 5 6 6 8 9 8 8 8 7 7 8 8 9 10 11 11 12 13 13 14 14 16 17 18 18 18 17 17 18 18 18 18 18 17 18 18 19 20 19
nan nan nan nan nan nan nan nan nan 10 10 9 11 13 10 7 4 5 7 6 9 11 13 10 8 8 10 10 11 11 11 11 nan nan nan nan nan 15 12 8 6 3 1 1 2 6 8 7 9 12 14 11 9 9 9 7 7 7 8 6 7 7 8 8 7 7 7 7 7 8 9 9 10 11 11 11 13 14 14 15 16 17 17 17 17 18 18 18 18 17 17 18 18 19 19 18 18
nan nan nan nan nan nan nan nan nan 16 11 18 16 15 13 9 5 5 6 6 12 16 17 14 11 8 8 11 11 12 12 8 9 9 13 15 nan nan 13 8 6 5 0 2 1 5 8 8 9 12 15 13 10 8 8 8 8 7 7 8 9 8 7 7 7 7 7 7 7 7 8 9 10 10 11 11 12 13 14 14 15 16 16 16 17 17 17 17 16 16 15 16 16 16 17 16 15
nan nan nan nan nan nan nan nan nan nan 12 nan nan 13 15 14 10 6 7 10 9 14 18 18 15 11 8 9 10 10 10 10 10 9 13 14 15 nan 13 9 7 6 4 3 0 4 7 8 10 13 15 12 10 8 7 7 9 9 8 9 8 9 10 8 6 6 6 6 7 7 8 9 9 10 10 11 12 13 13 13 14 14 15 15 15 15 15 15 14 14 14 14 15 14 14 14 13
nan nan nan nan nan nan nan nan nan nan 17 nan nan 15 nan 23 18 11 8 7 6 9 12 12 12 13 11 11 11 11 12 12 12 11 12 14 15 nan 12 10 8 5 2 2 2 1 6 8 10 13 15 13 11 8 5 7 8 9 10 8 9 8 7 9 8 8 8 7 7 7 8 8 8 9 9 10 11 11 12 13 13 14 14 14 13 13 13 14 12 12 11 11 11 12 12 12 10
nan nan nan nan nan nan nan nan nan nan nan nan nan nan nan 19 15 14 13 10 9 6 6 7 7 6 7 6 7 10 12 12 12 11 10 13 14 15 nan 13 9 6 3 2 2 3 8 7 9 12 15 14 12 8 5 7 8 10 nan nan 11 13 12 8 8 9 9 8 7 7 8 8 8 8 8 9 9 10 11 11 12 13 13 14 13 12 12 12 11 11 9 8 8 9 10 9 9
nan nan nan nan nan nan nan nan nan nan nan nan nan nan nan 19 12 10 12 10 10 5 6 8 7 5 5 6 8 8 9 10 12 12 11 13 15 15 nan nan 12 9 6 3 2 3 5 7 9 12 15 15 12 8 7 7 7 7 nan nan nan 10 9 7 7 7 8 8 8 7 7 7 7 7 8 8 8 9 9 10 11 11 12 12 12 12 12 11 11 10 9 7 8 8 7 7 8
nan nan nan nan nan nan nan nan nan nan nan nan nan nan nan nan 16 13 12 8 8 7 4 5 5 6 6 7 8 9 10 10 10 10 7 9 14 17 16 nan 13 11 8 5 3 3 3 4 7 10 13 14 13 10 8 8 9 9 nan nan nan 6 5 8 8 7 7 7 7 7 7 7 7 6 7 7 7 8 8 8 9 9 9 10 10 9 10 10 10 10 8 6 8 5 4 6 7
nan nan nan nan nan nan nan nan nan nan nan nan nan nan nan nan 17 15 13 11 9 9 5 4 5 6 6 6 7 7 9 10 10 11 10 8 12 16 17 nan nan 11 9 7 4 3 3 3 5 9 13 13 12 10 8 7 8 8 nan nan nan nan 5 5 5 7 7 7 6 7 8 8 7 6 6 6 6 6 5 6 6 6 7 8 8 8 10 9 9 8 7 7 5 4 3 4 6
nan nan nan nan nan nan nan nan nan nan nan nan nan nan nan nan 23 21 17 13 10 8 7 7 7 8 6 7 7 7 8 9 10 9 11 9 9 12 12 13 nan nan nan nan nan 4 4 4 5 8 10 11 12 9 7 8 8 6 6 nan nan nan nan nan 5 6 6 7 6 8 8 8 7 7 6 5 5 5 4 4 4 5 5 6 6 6 7 7 8 7 6 6 6 5 3 3 3
nan nan nan nan nan nan nan nan nan nan nan nan nan nan nan nan nan nan 18 8 2 8 11 9 6 7 7 7 8 8 6 6 7 9 10 8 7 8 10 11 12 nan 8 nan nan nan 4 5 4 5 7 10 10 9 7 7 7 7 7 nan nan nan nan nan 7 5 6 6 6 7 7 7 7 7 7 6 5 4 3 3 3 5 6 5 5 6 5 6 7 7 6 6 6 5 4 2 3
nan nan nan nan nan nan nan nan nan nan nan nan nan nan nan nan nan 17 13 1 7 7 5 3 3 4 6 7 8 7 6 6 5 6 7 7 5 7 9 12 14 11 nan nan nan nan 5 4 3 3 5 9 9 7 7 5 6 7 7 nan nan nan nan nan nan 7 7 8 6 7 7 7 7 6 6 5 4 2 2 2 4 5 6 6 6 6 6 7 7 7 7 6 6 6 5 4 4
nan nan nan nan nan nan nan nan nan nan nan nan nan nan nan nan nan 18 7 4 7 7 8 9 8 7 5 4 4 5 5 4 4 5 7 7 4 6 9 11 13 14 11 nan nan 7 6 4 4 3 5 7 8 7 6 6 7 7 8 nan nan nan nan nan nan nan 5 5 5 6 7 8 8 7 6 5 4 2 2 2 4 5 7 7 8 7 6 7 7 6 6 6 6 7 6 5 4
nan nan nan nan nan nan nan nan nan nan nan nan nan nan nan nan nan nan nan 8 5 4 1 2 3 2 0 2 2 2 2 3 4 4 6 6 4 6 9 10 11 12 12 11 9 7 6 5 4 4 3 6 7 7 5 4 6 6 6 nan nan nan nan nan nan nan 5 5 6 7 7 7 8 8 7 6 5 3 2 3 5 6 7 8 8 7 7 7 6 6 6 7 6 7 7 6 5
nan nan nan nan nan nan nan nan nan nan nan nan nan nan nan nan nan nan nan 4 4 2 3 5 6 6 4 1 2 2 1 1 3 4 5 5 3 4 6 8 9 9 10 11 9 8 7 6 4 3 3 5 7 7 5 5 4 5 6 7 nan nan nan nan nan nan nan 6 7 7 6 6 6 6 6 6 5 3 3 4 5 7 8 8 7 7 7 6 6 6 6 6 6 7 7 7 7
nan nan nan nan nan nan nan nan nan nan nan nan nan nan nan nan nan nan nan nan 11 8 8 7 8 8 5 5 5 4 4 2 2 3 5 4 3 4 4 5 6 7 9 10 9 9 8 7 5 3 4 5 6 6 7 4 5 6 6 6 nan nan nan nan nan nan nan nan 8 7 7 7 6 6 6 6 5 4 4 4 6 7 8 8 7 7 7 6 6 6 6 6 6 6 7 7 7
nan nan nan nan nan nan nan nan nan nan nan nan nan nan nan nan nan nan nan nan nan 21 17 12 6 6 9 10 5 6 8 9 6 3 4 3 2 3 4 4 5 6 9 9 11 10 nan 7 nan 5 5 6 7 7 7 5 5 7 6 5 nan nan nan nan nan nan nan nan nan 7 7 7 8 7 7 6 5 4 4 5 6 8 7 8 8 8 8 7 6 6 6 6 8 6 7 7 7
nan nan nan nan nan nan nan nan nan nan nan nan nan nan nan nan nan nan nan nan nan nan 34 28 18 13 15 9 5 4 8 12 11 7 2 2 2 2 4 5 5 7 8 10 11 11 10 8 7 6 6 7 6 6 6 7 7 7 5 3 nan nan nan nan nan nan nan nan nan nan 8 6 7 8 8 7 6 5 5 4 6 8 8 7 7 8 8 8 7 7 7 7 9 9 8 9 7
nan nan nan nan nan nan nan nan nan nan nan nan nan nan nan nan nan nan 44 46 45 44 40 nan nan 27 20 13 8 3 7 10 11 9 5 4 3 4 4 5 6 7 8 9 10 10 9 8 7 7 7 6 6 8 8 9 8 6 6 4 nan nan nan nan nan nan nan nan nan nan nan 8 7 7 7 7 6 5 5 5 5 7 7 6 8 8 8 8 7 8 9 9 10 9 10 10 8
nan nan nan nan nan nan nan nan nan nan nan nan nan nan nan nan nan nan nan 47 47 48 45 nan nan nan nan 15 10 3 3 3 5 8 9 7 6 5 6 6 6 6 7 8 9 10 9 7 6 6 6 7 8 10 11 11 9 10 8 5 nan nan nan nan nan nan nan nan nan nan nan nan 7 8 7 7 6 5 4 5 5 7 6 7 7 8 8 8 7 9 10 10 10 8 10 11 11
nan nan nan nan nan nan nan nan nan nan nan nan nan nan nan nan nan nan 49 46 46 48 48 nan nan nan nan 16 12 9 5 2 2 7 10 11 11 9 7 7 7 7 7 8 9 9 10 9 7 4 6 9 10 8 8 8 9 11 10 8 6 nan nan nan nan nan nan nan nan nan nan nan nan 6 6 5 5 4 4 4 5 6 6 6 7 8 8 8 8 10 11 11 10 8 9 10 11
nan nan nan nan nan nan nan nan nan nan nan nan nan nan nan nan nan nan nan 47 48 50 47 nan nan nan nan nan 12 12 8 5 5 5 8 12 12 10 6 5 7 9 10 10 8 8 9 8 7 6 5 7 7 7 8 9 11 10 10 8 7 nan nan nan nan nan nan nan nan nan nan nan nan nan 5 4 4 3 3 4 5 5 6 6 7 8 8 8 8 10 12 12 11 9 10 11 10
nan nan nan nan nan nan nan nan nan nan nan nan nan nan nan nan nan nan nan nan nan nan 50 nan nan nan nan nan 15 15 11 5 5 6 8 10 12 9 5 5 8 12 12 10 9 8 7 7 7 7 5 4 6 8 9 10 11 11 9 9 9 9 nan nan nan nan nan nan nan nan nan nan nan nan nan 4 2 2 3 3 4 5 5 6 7 8 8 8 8 10 12 12 12 11 10 11 9
Wind_Direction
322 305 nan nan nan nan 297 279 288 292 304 315 339 85 124 139 177 138 142 136 135 136 139 168 173 106 87 73 57 269 114 nan 59 nan nan 67 16 350 0 346 343 343 3 34 51 45 32 20 13 349 346 351 359 359 3 360 340 325 322 321 313 295 263 234 215 196 180 173 196 72 277 265 263 262 263 264 281 295 299 300 298 301 304 317 309 323 289 294 292 309 334 333 334 338 346 349 343
289 304 nan nan nan 302 294 317 309 288 322 340 69 121 131 158 126 137 123 133 128 136 136 148 156 164 167 149 32 24 189 147 94 63 97 11 352 12 355 350 350 346 6 34 40 43 46 39 8 347 347 349 357 358 2 5 5 355 341 323 308 295 279 236 202 189 174 173 170 199 260 276 288 287 281 278 285 295 296 291 291 299 304 304 297 278 281 282 294 298 304 327 335 338 349 351 344
nan nan nan nan nan 296 301 306 318 324 nan nan 107 140 150 135 152 136 138 139 152 172 162 165 186 153 149 142 115 110 68 150 27 359 9 359 341 32 3 355 354 347 0 34 37 48 55 34 9 349 347 351 353 355 0 9 16 20 13 341 310 300 292 219 195 186 174 174 189 214 259 290 299 303 294 291 291 291 291 292 297 306 307 300 283 273 272 273 274 291 305 306 330 331 343 348 341
nan nan nan nan nan 303 305 323 343 341 nan nan 143 156 148 138 136 123 133 147 151 147 134 150 144 120 132 203 32 251 267 9 84 338 346 23 37 11 10 356 353 351 8 38 50 60 65 16 2 355 352 351 353 354 0 7 9 15 30 31 316 335 121 148 200 171 147 181 204 233 239 243 266 284 291 290 291 292 297 300 305 312 310 294 273 266 261 266 260 254 267 289 302 325 337 342 340
nan nan nan nan 290 289 303 345 350 345 347 205 157 185 141 128 131 127 155 152 157 151 136 135 154 139 120 352 49 50 18 317 49 100 316 67 13 1 8 356 350 352 5 37 53 58 58 357 4 359 355 352 352 349 355 357 6 21 24 46 45 60 56 46 30 44 67 130 232 243 245 235 252 293 292 290 291 291 289 297 308 329 317 295 273 255 251 264 279 274 276 299 312 313 323 330 332
nan nan 314 262 277 292 292 351 5 4 5 164 151 172 146 133 138 152 171 168 158 172 143 136 118 102 167 153 115 34 340 351 46 116 313 16 14 355 357 358 348 354 357 33 56 77 71 3 360 359 354 354 350 347 347 354 3 21 36 44 53 59 53 42 39 19 345 338 301 303 281 280 282 260 292 291 297 303 329 322 327 324 311 292 277 283 294 293 291 286 292 309 309 316 320 326 325
291 nan 298 315 5 323 339 6 29 10 55 139 151 178 138 135 141 164 144 147 146 169 142 130 283 257 178 96 247 38 22 308 12 64 317 347 17 354 350 357 348 347 343 20 70 77 56 7 6 360 355 351 346 348 350 354 5 20 32 42 46 43 44 47 49 19 345 348 337 337 354 315 292 357 343 304 311 319 321 324 337 337 322 305 302 294 289 309 306 292 287 292 305 316 327 334 339
276 265 318 285 242 349 7 25 33 324 149 145 166 186 150 nan 126 129 113 127 119 128 129 129 148 215 170 116 7 32 325 269 308 22 313 348 24 1 351 353 343 342 335 20 87 93 21 8 12 358 352 355 356 354 354 1 11 22 30 40 47 40 45 60 51 41 22 7 6 356 21 14 38 26 359 338 337 330 319 359 16 8 349 346 334 329 329 323 301 285 290 300 314 321 326 339 349
269 259 266 254 302 1 17 30 17 308 178 160 181 183 157 130 125 121 147 152 156 139 84 125 126 201 99 146 166 326 203 296 317 344 334 357 25 10 15 358 340 334 328 4 87 103 80 21 8 356 355 5 4 1 5 10 19 25 34 41 43 41 46 58 52 45 36 22 15 24 44 60 63 54 34 7 347 343 8 43 44 41 25 4 359 354 344 317 303 295 306 312 329 345 357 357 345
239 258 310 313 295 39 329 nan 18 215 197 183 187 182 158 134 147 147 176 181 148 146 117 124 129 312 346 311 356 44 8 318 326 340 352 14 25 22 13 1 341 325 320 347 112 114 113 23 358 357 4 9 12 12 18 21 23 27 37 43 42 43 47 42 41 41 34 21 21 32 43 51 49 42 29 19 16 14 39 54 52 45 31 18 12 12 3 332 334 358 2 350 344 359 10 7 356
250 249 236 312 323 357 nan nan 328 nan 193 186 190 195 137 133 163 169 169 164 119 118 89 346 277 334 320 116 113 5 335 329 332 343 6 21 28 22 21 10 341 321 319 320 124 126 117 105 6 5 11 15 20 21 25 25 21 19 24 26 25 44 41 37 35 37 32 26 26 30 37 40 40 33 41 36 21 32 51 54 48 36 27 25 25 27 33 32 26 33 28 19 20 19 11 16 14
231 232 230 314 351 352 1 6 nan 197 153 147 173 158 137 145 164 180 204 94 95 60 356 4 28 323 258 60 75 359 343 339 336 343 7 28 41 30 16 7 331 307 307 307 143 131 123 117 107 37 17 18 23 26 31 24 20 10 9 18 21 38 45 28 33 35 32 32 32 34 35 43 41 37 37 33 36 42 54 53 48 41 36 37 35 34 44 49 43 43 41 48 66 61 27 22 19
229 219 243 306 347 356 15 36 nan 155 136 150 137 155 143 154 158 145 162 141 87 342 50 99 332 117 312 82 61 1 355 349 343 349 4 41 49 58 27 320 308 295 298 297 131 126 118 122 118 113 66 14 22 24 30 17 24 0 15 16 20 29 34 30 36 37 36 32 36 32 37 44 41 37 38 35 42 51 53 53 52 52 53 47 45 41 50 56 53 55 67 77 93 97 53 36 27
246 213 358 9 276 1 14 42 69 89 121 117 144 146 153 158 148 152 187 170 146 129 146 345 314 273 251 9 44 38 19 355 348 350 9 18 47 60 351 318 310 296 286 320 126 126 124 126 121 116 103 113 127 77 43 3 15 4 21 25 24 29 30 35 42 41 37 37 34 36 39 41 40 40 43 48 55 59 61 65 64 64 62 57 50 48 54 60 59 73 98 103 90 89 74 58 49
226 194 169 253 213 324 26 31 43 63 94 70 107 129 164 166 163 165 170 193 159 153 144 139 318 280 34 33 25 35 15 358 351 339 347 5 17 13 338 345 311 276 285 65 130 126 125 128 126 137 146 154 148 127 134 99 17 24 29 36 29 27 33 39 40 44 38 39 34 37 40 41 47 49 52 58 65 64 73 81 76 66 64 62 59 60 64 71 73 75 82 92 93 82 76 71 64
238 206 200 197 171 329 64 36 55 1 72 61 87 130 202 186 171 172 166 160 162 147 128 94 103 170 352 81 15 353 357 356 342 335 337 345 6 319 251 24 10 249 70 103 118 130 131 141 141 147 152 151 139 131 134 112 59 30 38 41 36 30 31 45 47 42 39 40 40 40 43 58 60 71 59 75 72 69 60 72 62 64 63 63 64 67 72 79 82 76 74 77 79 85 79 74 77
226 209 192 222 178 240 78 35 21 54 14 360 295 352 226 203 174 170 153 157 177 148 136 122 105 159 346 15 340 334 356 347 328 328 330 350 32 86 138 124 112 109 96 105 123 128 135 141 135 137 138 143 137 135 143 135 90 47 47 50 34 38 29 43 45 43 47 53 50 47 56 92 98 98 95 100 76 89 74 67 64 62 65 64 63 67 71 79 82 78 70 66 73 83 85 85 84
224 205 223 223 282 nan 355 357 30 25 348 350 356 16 301 265 159 155 153 182 174 157 148 126 149 279 317 317 322 340 355 335 329 338 349 1 36 33 69 94 63 41 58 97 111 113 126 126 125 129 130 141 143 144 139 136 121 84 94 90 85 68 55 57 76 89 70 83 51 71 93 91 98 96 98 87 99 91 85 66 68 66 63 64 66 69 72 77 79 76 70 63 66 80 105 114 108
225 205 225 222 nan 10 288 279 297 322 35 353 348 1 354 289 181 146 168 162 167 159 135 128 270 274 296 323 325 341 354 335 339 351 353 4 20 7 27 78 69 47 45 81 115 106 118 123 122 125 131 141 149 142 136 132 112 115 111 109 102 80 93 104 98 93 102 97 99 94 94 97 96 98 96 89 95 87 85 66 68 66 64 64 68 71 73 75 76 72 65 62 68 90 109 109 111
221 210 210 199 nan 225 236 308 322 332 333 345 332 6 344 328 150 138 167 160 138 83 72 90 311 313 323 333 328 344 353 342 347 354 1 14 24 14 14 33 58 62 41 58 103 120 119 111 114 126 128 135 141 137 137 131 124 117 119 119 120 120 117 111 105 102 97 100 101 102 96 94 95 94 74 67 71 89 84 77 68 66 66 67 67 90 79 70 74 72 69 96 106 106 105 108 107
231 216 215 nan nan 227 223 294 290 312 343 355 348 327 299 196 173 144 209 196 127 114 82 29 350 326 332 339 333 349 354 347 349 355 7 21 36 58 52 49 51 60 67 102 121 107 101 108 114 123 129 130 133 132 132 124 120 119 116 119 120 118 116 113 108 104 101 101 104 101 95 92 91 93 95 95 99 96 101 107 108 109 108 110 111 112 110 106 109 108 103 105 104 107 109 107 103
221 216 190 nan nan 217 209 245 299 318 15 356 340 328 344 276 199 157 122 120 95 92 78 61 345 330 337 340 342 353 355 351 351 350 12 18 15 26 64 114 121 109 95 81 93 106 104 109 109 119 123 123 124 127 122 112 113 114 113 114 121 122 117 112 111 108 104 102 102 96 94 91 90 95 95 97 101 102 102 104 106 108 110 109 111 113 113 107 106 105 102 103 105 103 105 104 103
nan nan nan nan nan 222 217 254 290 324 5 2 359 326 303 340 179 128 103 142 142 149 124 101 340 332 337 337 343 354 359 354 353 355 8 21 22 22 32 76 67 69 83 93 111 117 115 111 110 115 111 118 127 130 128 127 119 118 118 116 115 113 113 110 107 108 105 103 98 91 85 87 90 92 92 96 102 103 101 101 102 106 107 108 108 108 108 107 102 101 103 101 97 96 100 101 103
nan nan nan nan nan 231 249 262 271 318 359 23 38 335 335 7 37 78 98 173 161 159 147 89 334 333 339 346 359 359 2 351 353 0 13 24 18 17 28 40 77 105 102 104 113 115 106 97 109 106 109 117 129 128 127 126 123 119 115 109 114 104 106 105 105 102 103 97 95 91 88 86 86 85 88 92 99 100 96 100 103 104 105 104 105 104 105 104 101 105 107 101 95 90 91 96 100
nan nan nan nan nan 237 267 253 247 231 151 203 329 341 15 43 46 53 66 160 149 151 180 337 337 343 346 348 357 353 5 351 348 358 14 39 31 32 63 103 95 85 76 93 115 114 102 104 107 100 110 117 131 126 122 124 120 119 115 118 112 101 105 103 103 103 96 95 96 92 87 82 87 87 84 86 95 100 103 105 104 101 101 101 102 101 99 97 99 104 108 103 95 91 88 87 95
nan nan nan nan nan 270 276 261 249 221 188 178 301 276 33 107 331 79 68 22 144 177 212 331 342 345 347 353 5 351 5 1 351 356 7 10 12 21 51 69 84 63 68 92 112 120 119 111 95 95 108 119 125 122 123 122 116 113 114 115 112 110 105 105 104 99 95 91 95 90 87 82 80 84 84 86 85 93 101 105 105 101 97 98 97 94 96 96 96 105 105 100 93 91 86 89 90
nan nan nan nan nan 275 275 279 258 230 198 183 269 298 82 123 81 108 78 27 329 245 344 3 352 353 352 358 11 353 0 5 0 354 358 9 11 28 49 70 84 71 61 88 116 130 125 114 102 102 119 114 124 119 122 119 117 113 114 119 115 114 109 109 103 101 93 89 92 85 85 84 82 84 81 80 85 87 94 99 101 102 97 96 93 94 97 95 99 99 97 91 89 89 88 89 87
nan nan nan nan 273 280 279 261 262 241 213 199 213 202 191 159 137 99 34 350 342 320 359 18 17 359 359 360 10 nan 359 3 356 360 2 2 10 21 38 58 69 67 44 78 128 141 125 99 95 100 119 120 115 118 120 118 115 114 117 120 114 116 110 106 102 95 88 87 93 85 85 85 86 86 81 81 83 87 92 95 101 103 97 98 96 97 98 101 100 101 98 96 93 95 96 96 95
nan nan nan 206 267 262 285 282 267 248 217 216 230 218 164 151 122 127 11 324 346 339 3 20 17 3 1 3 4 nan 356 356 0 12 10 6 360 15 34 57 51 59 96 90 137 133 105 100 93 97 123 123 113 113 116 116 117 118 117 114 114 115 110 108 99 91 86 90 94 89 86 89 90 81 79 80 85 88 95 98 99 102 103 102 101 100 101 105 108 108 111 110 107 104 103 104 100
nan nan nan 216 215 215 235 230 256 239 222 246 257 212 116 70 92 128 351 340 344 342 3 19 12 4 3 4 nan nan nan nan 2 9 4 359 358 4 27 64 63 87 89 135 145 123 127 129 111 113 124 119 112 117 119 118 116 118 119 117 114 115 113 106 99 93 88 87 91 94 91 92 92 85 81 86 88 91 97 98 98 101 104 104 105 106 103 106 106 107 107 110 103 107 107 108 106
nan nan nan 225 227 199 264 281 279 234 231 270 198 206 nan 137 82 144 354 343 345 352 3 5 358 4 7 4 356 nan nan nan 360 359 359 353 351 355 9 63 87 98 161 124 111 122 127 123 111 117 124 122 115 117 113 115 120 120 118 116 113 112 111 104 99 98 93 90 92 97 100 99 98 91 89 85 90 93 94 98 100 100 105 108 108 109 109 110 104 99 103 110 114 115 114 110 111
nan nan nan 204 235 nan 267 220 298 260 227 260 208 197 195 244 285 247 330 354 338 341 1 352 350 360 5 4 353 nan nan nan nan nan nan 349 349 352 354 8 75 71 42 74 133 142 124 118 107 119 126 123 115 115 114 115 117 121 119 113 115 110 107 101 99 98 98 98 95 99 103 103 102 95 91 92 90 94 93 96 99 104 105 109 108 110 112 107 110 107 108 108 111 114 116 116 114
nan nan nan nan nan nan 223 172 188 186 244 122 63 213 210 220 227 248 302 339 338 329 349 352 349 359 351 357 357 nan nan nan nan nan nan nan 351 353 354 352 45 58 39 70 128 146 136 118 112 121 123 119 116 115 115 121 123 124 120 113 111 108 99 96 101 107 106 99 98 98 103 104 104 96 92 91 90 93 94 98 100 100 103 105 105 109 109 109 108 110 111 109 106 108 111 112 111
nan nan nan nan nan nan 201 206 193 168 210 146 106 180 191 201 249 247 291 321 335 330 343 352 351 355 350 345 353 359 nan nan nan nan nan nan 348 356 358 354 4 55 52 33 113 137 129 121 121 130 137 129 126 121 117 118 121 125 121 117 121 104 95 99 102 105 103 101 101 99 103 105 107 100 97 94 91 94 97 97 99 100 102 104 108 111 108 113 113 112 110 115 111 109 106 102 99
nan nan nan nan nan nan nan 217 193 186 172 162 117 119 146 191 226 248 317 323 348 350 346 352 354 2 6 342 350 358 nan nan nan nan nan nan nan 354 0 358 349 16 104 39 119 152 157 138 136 138 144 139 132 128 123 121 125 133 126 123 115 107 110 110 107 104 104 108 101 102 107 108 108 103 101 97 95 97 99 101 101 101 104 106 111 114 114 115 115 114 111 112 112 104 98 97 98
nan nan nan nan nan nan nan nan 206 229 193 158 149 122 116 153 187 173 358 11 21 6 346 341 353 12 19 352 347 356 7 nan nan nan nan nan nan 352 357 355 345 349 109 97 129 157 157 149 144 148 150 148 148 134 130 128 131 127 123 136 128 114 114 114 110 102 110 111 108 107 111 114 114 107 105 104 104 104 103 102 100 102 102 104 106 109 110 110 106 109 111 110 112 111 102 100 103
nan nan nan nan nan nan nan nan nan 226 196 148 140 133 139 124 64 35 31 36 44 12 355 344 351 13 24 2 347 354 6 8 nan nan nan nan nan 354 353 352 347 342 319 310 152 152 157 152 150 145 153 159 154 141 134 134 133 143 149 132 122 119 114 113 111 113 114 120 116 114 119 119 117 114 113 114 109 107 103 101 100 100 99 99 99 97 99 100 101 102 106 109 107 109 109 106 107
nan nan nan nan nan nan nan nan nan 216 195 158 154 159 144 143 113 58 42 33 34 20 5 358 353 358 11 8 352 354 6 8 355 342 349 350 nan nan 352 352 341 336 281 273 171 148 160 161 146 151 161 162 156 146 141 140 141 138 151 142 147 135 127 117 116 120 117 124 125 123 125 128 123 118 117 115 112 105 101 99 98 97 99 96 97 99 99 100 102 104 105 110 111 109 109 107 104
nan nan nan nan nan nan nan nan nan nan 197 nan nan 163 153 162 156 129 63 42 40 25 10 1 350 345 348 2 355 355 0 14 13 357 347 348 354 nan 354 349 341 346 337 329 299 173 168 161 155 160 160 165 160 157 160 139 142 153 156 152 147 147 137 120 114 112 123 121 123 124 128 129 128 123 116 109 106 105 101 101 100 101 100 100 99 99 100 100 102 102 102 104 111 113 112 112 108
nan nan nan nan nan nan nan nan nan nan 215 nan nan 170 nan 200 186 157 121 76 78 43 19 3 355 347 346 356 352 353 6 13 17 7 353 348 352 nan 352 349 342 334 326 331 298 209 177 163 163 164 160 163 166 160 156 142 136 150 160 160 151 148 132 132 134 141 132 136 126 129 131 127 124 120 113 108 112 107 104 101 102 101 98 100 98 99 103 102 106 108 110 112 116 117 119 117 114
nan nan nan nan nan nan nan nan nan nan nan nan nan nan nan 217 210 177 155 149 150 82 35 18 15 360 347 341 342 346 360 13 18 14 357 350 351 351 nan 355 347 339 332 344 299 224 185 166 165 167 164 161 164 161 161 161 157 164 nan nan 167 167 163 150 151 140 132 127 133 137 119 127 122 119 118 115 115 106 105 103 99 98 99 99 102 101 103 101 105 106 104 108 109 111 114 119 123
nan nan nan nan nan nan nan nan nan nan nan nan nan nan nan 206 219 196 194 168 126 112 30 23 16 3 330 339 352 345 357 11 17 18 7 352 348 349 nan nan 358 353 336 327 301 265 211 179 171 170 168 165 158 155 172 168 151 161 nan nan nan 159 157 141 115 105 121 127 118 123 136 130 125 131 130 125 118 112 102 99 99 97 97 95 94 96 101 108 107 106 99 99 106 111 122 124 122
nan nan nan nan nan nan nan nan nan nan nan nan nan nan nan nan 213 215 206 170 130 156 73 44 26 14 354 350 347 344 351 4 18 25 21 354 350 352 354 nan 0 359 343 310 288 276 249 207 178 174 171 167 161 158 171 169 166 170 nan nan nan 137 138 127 123 122 122 130 141 140 137 143 141 134 135 127 117 111 104 99 94 92 89 86 92 94 93 90 93 93 102 104 97 113 133 123 114
nan nan nan nan nan nan nan nan nan nan nan nan nan nan nan nan 193 209 207 188 169 156 131 86 54 36 15 3 355 344 350 357 8 21 24 10 358 355 355 nan nan 360 341 312 295 265 260 228 195 181 177 169 164 166 167 167 171 169 nan nan nan nan 132 126 126 129 140 149 149 146 156 149 150 142 133 128 119 117 111 98 91 89 82 80 81 76 79 86 93 102 98 97 112 106 93 100 114
nan nan nan nan nan nan nan nan nan nan nan nan nan nan nan nan 196 216 223 209 185 126 84 61 49 41 32 19 12 2 354 352 3 13 16 11 4 360 350 343 nan nan nan nan nan 272 244 228 203 191 183 172 167 168 172 170 174 166 154 nan nan nan nan nan 157 163 156 158 151 161 159 155 157 147 137 132 128 123 113 95 89 83 73 71 73 74 82 83 80 87 97 105 99 99 86 108 142
nan nan nan nan nan nan nan nan nan nan nan nan nan nan nan nan nan nan 228 241 184 86 63 51 34 32 33 26 21 13 360 352 1 8 9 13 358 353 345 335 336 nan 351 nan nan nan 257 235 211 198 185 179 174 170 175 176 174 173 157 nan nan nan nan nan 176 165 158 170 157 160 158 159 159 155 144 146 141 135 116 100 75 62 58 56 61 59 70 75 82 86 88 87 96 100 104 109 106
nan nan nan nan nan nan nan nan nan nan nan nan nan nan nan nan nan 233 242 25 26 69 76 48 20 45 50 42 23 13 5 359 356 1 3 5 342 332 326 343 350 346 nan nan nan nan 276 261 243 205 181 186 184 174 179 175 174 176 157 nan nan nan nan nan nan 168 170 173 166 162 158 152 163 153 151 145 141 143 118 90 63 59 58 56 58 59 64 68 78 84 90 98 104 97 99 100 120
nan nan nan nan nan nan nan nan nan nan nan nan nan nan nan nan nan 200 165 106 45 33 27 12 25 33 46 59 44 25 6 355 355 359 356 347 314 322 336 347 347 353 352 nan nan 301 285 273 256 237 192 186 190 185 178 177 183 176 165 nan nan nan nan nan nan nan 169 159 161 162 162 166 156 159 157 151 145 137 109 80 75 70 64 63 63 66 74 77 86 96 103 98 104 112 119 119 108
nan nan nan nan nan nan nan nan nan nan nan nan nan nan nan nan nan nan nan 136 120 51 355 351 11 357 40 107 65 51 16 352 352 356 354 354 349 335 348 351 347 352 357 354 345 315 290 271 278 272 214 192 193 196 185 185 194 190 173 nan nan nan nan nan nan nan 176 165 169 173 178 161 163 159 146 138 131 113 103 72 70 69 75 71 70 73 81 85 91 95 98 99 105 111 104 104 99
nan nan nan nan nan nan nan nan nan nan nan nan nan nan nan nan nan nan nan 119 97 128 224 256 308 320 336 313 226 213 193 353 348 350 5 23 30 351 345 349 351 355 353 347 340 317 283 259 260 272 257 218 201 197 195 201 204 211 193 174 nan nan nan nan nan nan nan 170 181 175 169 162 155 132 131 117 123 126 114 87 77 76 79 80 79 78 83 91 94 88 93 91 94 99 111 109 105
nan nan nan nan nan nan nan nan nan nan nan nan nan nan nan nan nan nan nan nan 194 188 219 252 306 330 314 279 279 316 312 305 307 356 16 32 40 347 327 343 347 346 345 342 332 318 293 272 261 258 239 224 216 206 201 205 219 228 212 185 nan nan nan nan nan nan nan nan 181 177 167 166 152 137 126 128 150 136 112 103 91 84 81 83 90 92 93 98 100 98 93 88 93 98 102 109 115
nan nan nan nan nan nan nan nan nan nan nan nan nan nan nan nan nan nan nan nan nan 194 195 215 252 281 269 254 283 337 350 342 325 340 12 25 11 318 311 324 333 327 337 340 341 327 nan 286 nan 264 250 231 217 210 197 204 222 233 230 206 nan nan nan nan nan nan nan nan nan 178 172 166 151 148 148 159 146 144 124 102 95 86 84 82 88 94 99 99 103 96 98 99 94 101 96 105 114
nan nan nan nan nan nan nan nan nan nan nan nan nan nan nan nan nan nan nan nan nan nan 195 193 190 216 245 252 277 339 358 352 337 330 340 334 253 279 307 313 312 321 328 343 343 335 324 291 266 260 243 229 229 219 205 201 209 227 236 220 nan nan nan nan nan nan nan nan nan nan 182 166 160 162 161 163 156 154 139 114 94 88 83 81 88 96 101 106 109 104 97 97 94 98 93 93 107
nan nan nan nan nan nan nan nan nan nan nan nan nan nan nan nan nan nan 206 206 202 201 202 nan nan 205 218 222 234 295 4 5 346 326 310 303 288 287 279 293 318 324 332 336 334 324 321 306 284 269 249 244 224 223 214 205 206 214 225 225 nan nan nan nan nan nan nan nan nan nan nan 188 176 169 171 169 168 156 146 120 102 92 89 89 89 100 106 109 116 111 109 101 99 100 94 99 103
nan nan nan nan nan nan nan nan nan nan nan nan nan nan nan nan nan nan nan 207 203 201 202 nan nan nan nan 209 200 188 42 6 306 309 318 333 338 318 303 313 313 309 314 318 311 313 322 323 301 285 279 257 239 219 213 204 202 204 210 221 nan nan nan nan nan nan nan nan nan nan nan nan 193 191 186 183 179 160 146 124 107 95 94 88 102 108 114 115 121 118 119 110 113 108 97 95 100
nan nan nan nan nan nan nan nan nan nan nan nan nan nan nan nan nan nan 209 208 209 205 205 nan nan nan nan 201 203 187 180 188 297 316 328 344 345 329 316 310 301 295 291 288 299 306 333 340 326 294 251 243 241 235 225 216 209 204 206 214 213 nan nan nan nan nan nan nan nan nan nan nan nan 214 200 196 188 160 133 107 101 92 90 99 107 116 119 119 126 123 123 117 116 115 108 99 102
nan nan nan nan nan nan nan nan nan nan nan nan nan nan nan nan nan nan nan 211 217 214 212 nan nan nan nan nan 202 215 214 206 219 267 304 325 324 314 314 305 278 258 254 262 281 310 324 328 339 327 291 257 247 241 232 221 220 212 212 220 227 nan nan nan nan nan nan nan nan nan nan nan nan nan 232 222 203 161 125 100 93 93 87 94 109 119 126 133 135 128 127 127 127 118 109 106 106
nan nan nan nan nan nan nan nan nan nan nan nan nan nan nan nan nan nan nan nan nan nan 220 nan nan nan nan nan 213 232 234 231 248 260 278 296 298 289 280 281 258 252 256 270 275 280 299 330 341 330 308 261 247 230 221 220 220 217 217 220 226 229 nan nan nan nan nan nan nan nan nan nan nan nan nan 251 233 183 149 116 106 97 98 102 118 127 134 144 137 134 132 136 129 124 119 114 113